Back to catalog

FENGYUN 1C DEB

AlivePO
NORAD 38146·DEBRIS·🇨🇳 China

Launched May 10, 1999 from Taiyuan Satellite Launch Center

Loading…

Next Passes (next 24 hours)

TLE

FreshSource: Space-Track

Epoch: Sep 12, 2026, 02:17 UTC

1 38146U 99025EQT 26255.09530609  .00001872  00000-0  29699-3 0  9995
2 38146  99.4899  20.0971 0193583   1.1899 174.1118 14.62007760358707

Track FENGYUN 1C DEB in real time with AllMySat

Download on the App Store